DLH3NX EDDF-ENGM

Flight info

Callsign DLH3NX
Flight time 1h 44m
Altitude 37000
Route MARUN3W/25C MARUN Y150 TOLGI DCT ALASA DCT INVOL DCT SABAK L997 LUNIP
Aircraft A320/M-SDE2E3FGIJ1LORWXYZ/HB1

Departure

Time 2026-05-06 10:47
Airport Frankfurt Main Airport (EDDF)

Arrival

Time 2026-05-06 12:31
Airport Oslo-Gardermoen International Airport (ENGM)
Time Latitude Longitude Altitude Speed Heading
2026-05-06 09:53 50.04851 8.58900 365 ft 0 kts 340°
2026-05-06 10:38 50.04845 8.58904 365 ft 4 kts 340°
2026-05-06 10:38 50.04820 8.58919 366 ft 4 kts 340°
2026-05-06 10:39 50.04794 8.58933 367 ft 4 kts 340°
2026-05-06 10:39 50.04776 8.58944 368 ft 0 kts 340°
2026-05-06 10:42 50.04777 8.58943 368 ft 1 kts 339°
2026-05-06 10:42 50.04777 8.58937 368 ft 1 kts 301°
2026-05-06 10:43 50.04774 8.58931 368 ft 1 kts 245°
2026-05-06 10:43 50.04755 8.58881 370 ft 9 kts 243°
2026-05-06 10:43 50.04728 8.58795 371 ft 9 kts 230°
2026-05-06 10:44 50.04631 8.58754 370 ft 0 kts 191°
2026-05-06 10:45 50.04626 8.58752 370 ft 5 kts 193°
2026-05-06 10:46 50.04586 8.58717 371 ft 7 kts 216°
2026-05-06 10:46 50.04526 8.58645 371 ft 17 kts 220°
2026-05-06 10:46 50.04446 8.58417 370 ft 40 kts 249°
2026-05-06 10:46 50.04259 8.57640 362 ft 108 kts 249°
2026-05-06 10:47 50.03934 8.56288 361 ft 157 kts 249°
2026-05-06 10:47 50.03542 8.54616 781 ft 166 kts 248°
2026-05-06 10:47 50.03273 8.53485 1294 ft 164 kts 247°
2026-05-06 10:47 50.02859 8.51791 1838 ft 177 kts 246°
2026-05-06 10:48 50.02312 8.49941 2189 ft 195 kts 233°
2026-05-06 10:48 50.01294 8.48551 2826 ft 199 kts 209°
2026-05-06 10:48 49.99963 8.47924 3476 ft 204 kts 189°
2026-05-06 10:48 49.98553 8.47646 4149 ft 204 kts 190°
2026-05-06 10:49 49.97136 8.47336 4785 ft 206 kts 191°
2026-05-06 10:49 49.95700 8.47012 5376 ft 211 kts 192°
2026-05-06 10:49 49.94224 8.46503 5742 ft 226 kts 199°
2026-05-06 10:49 49.92664 8.45698 6198 ft 242 kts 206°
2026-05-06 10:50 49.91380 8.44053 6977 ft 243 kts 235°
2026-05-06 10:50 49.90698 8.41668 7807 ft 246 kts 258°
2026-05-06 10:50 49.90764 8.39002 8641 ft 252 kts 285°
2026-05-06 10:50 49.91663 8.36632 9423 ft 264 kts 313°
2026-05-06 10:51 49.93264 8.35145 10183 ft 275 kts 333°
2026-05-06 10:51 49.95099 8.33955 10510 ft 298 kts 333°
2026-05-06 10:51 49.97093 8.32663 10771 ft 322 kts 334°
2026-05-06 10:51 49.99225 8.31288 11187 ft 338 kts 334°
2026-05-06 10:52 50.01479 8.30102 11846 ft 349 kts 346°
2026-05-06 10:52 50.03942 8.30086 12520 ft 361 kts
2026-05-06 10:52 50.06314 8.31450 13194 ft 368 kts 26°
2026-05-06 10:52 50.08595 8.33288 13906 ft 372 kts 27°
2026-05-06 10:53 50.10898 8.35179 14599 ft 374 kts 27°
2026-05-06 10:53 50.13205 8.37084 15282 ft 377 kts 27°
2026-05-06 10:53 50.15530 8.39004 15948 ft 379 kts 27°
2026-05-06 10:53 50.17871 8.40931 16575 ft 383 kts 27°
2026-05-06 10:54 50.20241 8.42873 17201 ft 386 kts 27°
2026-05-06 10:54 50.22626 8.44823 17828 ft 388 kts 27°
2026-05-06 10:54 50.25024 8.46785 18411 ft 391 kts 28°
2026-05-06 10:54 50.27442 8.48761 18987 ft 393 kts 27°
2026-05-06 10:55 50.29872 8.50749 19560 ft 396 kts 27°
2026-05-06 10:55 50.32318 8.52758 20111 ft 398 kts 27°
2026-05-06 10:55 50.34774 8.54785 20669 ft 401 kts 27°
2026-05-06 10:55 50.37247 8.56830 21180 ft 403 kts 27°
2026-05-06 10:56 50.39737 8.58888 21682 ft 405 kts 27°
2026-05-06 10:56 50.42243 8.60958 22164 ft 408 kts 27°
2026-05-06 10:56 50.44757 8.63037 22636 ft 411 kts 27°
2026-05-06 10:56 50.47299 8.65135 23094 ft 413 kts 27°
2026-05-06 10:57 50.49848 8.67241 23557 ft 415 kts 27°
2026-05-06 10:57 50.52408 8.69365 24004 ft 418 kts 27°
2026-05-06 10:57 50.54984 8.71511 24435 ft 420 kts 27°
2026-05-06 10:57 50.57577 8.73674 24815 ft 424 kts 27°
2026-05-06 10:58 50.60189 8.75852 25174 ft 427 kts 27°
2026-05-06 10:58 50.62830 8.78057 25536 ft 430 kts 27°
2026-05-06 10:58 50.65480 8.80269 25882 ft 433 kts 27°
2026-05-06 10:58 50.68156 8.82505 26235 ft 436 kts 27°
2026-05-06 10:59 50.70847 8.84762 26576 ft 440 kts 27°
2026-05-06 10:59 50.73592 8.87068 26930 ft 442 kts 27°
2026-05-06 10:59 50.76281 8.89326 27265 ft 445 kts 27°
2026-05-06 10:59 50.79055 8.91658 27610 ft 447 kts 27°
2026-05-06 11:00 50.81776 8.93945 27949 ft 450 kts 28°
2026-05-06 11:00 50.84546 8.96276 28279 ft 452 kts 28°
2026-05-06 11:00 50.87331 8.98626 28595 ft 455 kts 28°
2026-05-06 11:00 50.90127 9.00989 28913 ft 457 kts 28°
2026-05-06 11:01 50.92978 9.03402 29239 ft 459 kts 28°
2026-05-06 11:01 50.95759 9.05759 29552 ft 461 kts 28°
2026-05-06 11:01 50.98588 9.08162 29849 ft 463 kts 28°
2026-05-06 11:01 51.01432 9.10582 30139 ft 464 kts 28°
2026-05-06 11:02 51.04285 9.13011 30436 ft 466 kts 28°
2026-05-06 11:02 51.07179 9.15476 30716 ft 467 kts 28°
2026-05-06 11:02 51.10013 9.17894 30990 ft 469 kts 28°
2026-05-06 11:02 51.12888 9.20351 31279 ft 469 kts 28°
2026-05-06 11:03 51.15759 9.22810 31648 ft 468 kts 28°
2026-05-06 11:03 51.18621 9.25266 32016 ft 467 kts 29°
2026-05-06 11:03 51.21479 9.27724 32350 ft 466 kts 28°
2026-05-06 11:03 51.24370 9.30213 32688 ft 466 kts 28°
2026-05-06 11:04 51.27223 9.32641 33046 ft 465 kts 26°
2026-05-06 11:04 51.30173 9.34572 33360 ft 464 kts 17°
2026-05-06 11:04 51.33339 9.35871 33685 ft 463 kts 12°
2026-05-06 11:04 51.36489 9.36956 33971 ft 463 kts 11°
2026-05-06 11:05 51.39639 9.38041 34277 ft 463 kts 12°
2026-05-06 11:05 51.42740 9.39119 34560 ft 462 kts 12°
2026-05-06 11:05 51.45928 9.40238 34800 ft 463 kts 12°
2026-05-06 11:05 51.49071 9.41348 35066 ft 462 kts 12°
2026-05-06 11:06 51.52212 9.42454 35319 ft 463 kts 12°
2026-05-06 11:06 51.55359 9.43561 35546 ft 463 kts 12°
2026-05-06 11:06 51.58504 9.44667 35768 ft 463 kts 11°
2026-05-06 11:06 51.61654 9.45771 36004 ft 463 kts 11°
2026-05-06 11:07 51.64804 9.46877 36218 ft 463 kts 11°
2026-05-06 11:07 51.67959 9.47989 36428 ft 464 kts 11°
2026-05-06 11:07 51.71106 9.49103 36624 ft 464 kts 11°
2026-05-06 11:07 51.74262 9.50223 36765 ft 464 kts 11°
2026-05-06 11:08 51.77401 9.51338 36797 ft 460 kts 11°
2026-05-06 11:08 51.83631 9.53383 36804 ft 454 kts
2026-05-06 11:09 51.89905 9.54240 36811 ft 453 kts
2026-05-06 11:09 51.96185 9.55083 36823 ft 452 kts
2026-05-06 11:10 52.02458 9.55938 36822 ft 452 kts
2026-05-06 11:10 52.08733 9.56781 36825 ft 452 kts
2026-05-06 11:11 52.15004 9.57625 36831 ft 452 kts
2026-05-06 11:11 52.21267 9.58482 36829 ft 451 kts
2026-05-06 11:12 52.27529 9.59348 36829 ft 451 kts
2026-05-06 11:12 52.33787 9.60216 36816 ft 451 kts
2026-05-06 11:13 52.40057 9.61080 36820 ft 452 kts
2026-05-06 11:13 52.46330 9.61943 36835 ft 453 kts
2026-05-06 11:14 52.52609 9.62811 36832 ft 453 kts
2026-05-06 11:14 52.58890 9.63676 36840 ft 453 kts
2026-05-06 11:15 52.65177 9.64542 36843 ft 453 kts
2026-05-06 11:15 52.71452 9.65430 36835 ft 453 kts
2026-05-06 11:16 52.77729 9.66310 36838 ft 453 kts
2026-05-06 11:16 52.84015 9.67186 36840 ft 453 kts
2026-05-06 11:17 52.90296 9.68065 36840 ft 453 kts
2026-05-06 11:17 52.96577 9.68953 36844 ft 454 kts
2026-05-06 11:18 53.02869 9.69848 36847 ft 454 kts
2026-05-06 11:18 53.09168 9.70728 36849 ft 454 kts
2026-05-06 11:19 53.15467 9.71625 36857 ft 455 kts
2026-05-06 11:19 53.21769 9.72543 36861 ft 454 kts
2026-05-06 11:20 53.28070 9.73451 36862 ft 454 kts
2026-05-06 11:20 53.34366 9.74350 36865 ft 454 kts
2026-05-06 11:21 53.40662 9.75252 36869 ft 454 kts
2026-05-06 11:21 53.46956 9.76161 36874 ft 454 kts
2026-05-06 11:22 53.53258 9.77076 36871 ft 455 kts
2026-05-06 11:22 53.59561 9.77984 36876 ft 454 kts
2026-05-06 11:23 53.65897 9.78913 36874 ft 454 kts
2026-05-06 11:23 53.72201 9.79842 36882 ft 455 kts
2026-05-06 11:24 53.78475 9.80757 36884 ft 456 kts
2026-05-06 11:24 53.84788 9.81676 36881 ft 455 kts
2026-05-06 11:25 53.90079 9.82452 36880 ft 455 kts
2026-05-06 11:25 53.96392 9.83399 36882 ft 455 kts
2026-05-06 11:26 54.02700 9.84331 36883 ft 455 kts
2026-05-06 11:26 54.09016 9.85263 36886 ft 456 kts
2026-05-06 11:27 54.15340 9.86221 36893 ft 456 kts
2026-05-06 11:27 54.21654 9.87157 36897 ft 456 kts
2026-05-06 11:28 54.27975 9.88091 36904 ft 455 kts
2026-05-06 11:28 54.34281 9.89053 36897 ft 455 kts
2026-05-06 11:29 54.40597 9.90016 36901 ft 456 kts
2026-05-06 11:29 54.46925 9.90977 36909 ft 456 kts
2026-05-06 11:30 54.53241 9.91935 36902 ft 456 kts
2026-05-06 11:30 54.59557 9.92895 36900 ft 456 kts
2026-05-06 11:31 54.65873 9.93864 36900 ft 456 kts
2026-05-06 11:31 54.72203 9.94843 36905 ft 457 kts
2026-05-06 11:32 54.78531 9.95817 36907 ft 457 kts
2026-05-06 11:32 54.84791 9.97773 36912 ft 458 kts 13°
2026-05-06 11:33 54.91005 10.00326 36921 ft 459 kts 12°
2026-05-06 11:33 54.97235 10.02900 36918 ft 460 kts 12°
2026-05-06 11:34 55.03467 10.05491 36918 ft 461 kts 12°
2026-05-06 11:34 55.09715 10.08096 36923 ft 462 kts 12°
2026-05-06 11:35 55.15977 10.10687 36928 ft 463 kts 12°
2026-05-06 11:35 55.22245 10.13321 36928 ft 464 kts 12°
2026-05-06 11:36 55.28527 10.15970 36929 ft 465 kts 12°
2026-05-06 11:36 55.34817 10.18622 36928 ft 465 kts 12°
2026-05-06 11:37 55.41121 10.21289 36929 ft 466 kts 11°
2026-05-06 11:37 55.47428 10.23962 36929 ft 467 kts 11°
2026-05-06 11:38 55.53743 10.26630 36928 ft 467 kts 11°
2026-05-06 11:38 55.60109 10.29324 36932 ft 467 kts 11°
2026-05-06 11:39 55.66192 10.31934 36931 ft 469 kts 11°
2026-05-06 11:39 55.71912 10.34397 36933 ft 469 kts 11°
2026-05-06 11:40 55.76860 10.36524 36940 ft 469 kts 11°
2026-05-06 11:40 55.82840 10.39116 36944 ft 469 kts 12°
2026-05-06 11:41 55.88974 10.41786 36945 ft 469 kts 11°
2026-05-06 11:41 55.95281 10.44516 36943 ft 469 kts 11°
2026-05-06 11:42 56.01613 10.47265 36948 ft 469 kts 12°
2026-05-06 11:42 56.07936 10.50045 36945 ft 468 kts 11°
2026-05-06 11:43 56.14268 10.52817 36953 ft 469 kts 11°
2026-05-06 11:43 56.20607 10.55604 36955 ft 469 kts 11°
2026-05-06 11:44 56.30113 10.59809 36953 ft 469 kts 11°
2026-05-06 11:44 56.36448 10.62625 36949 ft 470 kts 11°
2026-05-06 11:45 56.42794 10.65471 36953 ft 470 kts 11°
2026-05-06 11:45 56.49139 10.68304 36954 ft 470 kts 11°
2026-05-06 11:46 56.55489 10.71151 36955 ft 470 kts 11°
2026-05-06 11:46 56.61838 10.74020 36954 ft 470 kts 11°
2026-05-06 11:47 56.67067 10.76393 36958 ft 471 kts 11°
2026-05-06 11:47 56.73287 10.79211 36965 ft 470 kts 10°
2026-05-06 11:48 56.78932 10.81765 36966 ft 471 kts 10°
2026-05-06 11:48 56.85285 10.84662 36967 ft 471 kts 11°
2026-05-06 11:49 56.91641 10.87579 36968 ft 471 kts 10°
2026-05-06 11:49 56.97986 10.90496 36965 ft 470 kts 10°
2026-05-06 11:50 57.04337 10.93424 36964 ft 470 kts 10°
2026-05-06 11:50 57.10682 10.96343 36965 ft 470 kts 10°
2026-05-06 11:51 57.17024 10.99296 36961 ft 470 kts 10°
2026-05-06 11:51 57.23363 11.02253 36961 ft 470 kts 10°
2026-05-06 11:52 57.29711 11.05219 36959 ft 471 kts 10°
2026-05-06 11:52 57.36057 11.08207 36963 ft 471 kts 10°
2026-05-06 11:53 57.42402 11.11202 36966 ft 471 kts 10°
2026-05-06 11:53 57.48757 11.14194 36968 ft 471 kts 10°
2026-05-06 11:54 57.55079 11.17183 36971 ft 471 kts
2026-05-06 11:54 57.61436 11.20218 36974 ft 472 kts
2026-05-06 11:55 57.67710 11.23923 36976 ft 477 kts 19°
2026-05-06 11:55 57.70824 11.25910 36975 ft 468 kts
2026-05-06 11:55 57.74025 11.26405 36970 ft 459 kts 354°
2026-05-06 11:56 57.80410 11.26531 36961 ft 460 kts 354°
2026-05-06 11:56 57.86812 11.26726 36964 ft 460 kts 355°
2026-05-06 11:57 57.93213 11.26964 36970 ft 460 kts 355°
2026-05-06 11:57 57.99624 11.27202 36968 ft 461 kts 355°
2026-05-06 11:58 58.06038 11.27432 36967 ft 460 kts 354°
2026-05-06 11:58 58.12436 11.27654 36967 ft 460 kts 354°
2026-05-06 11:59 58.18832 11.27881 36966 ft 460 kts 354°
2026-05-06 11:59 58.25211 11.28106 36966 ft 460 kts 354°
2026-05-06 12:00 58.31626 11.28337 36971 ft 459 kts 354°
2026-05-06 12:00 58.38010 11.28571 36967 ft 459 kts 354°
2026-05-06 12:01 58.41208 11.28680 36809 ft 460 kts 354°
2026-05-06 12:01 58.44405 11.28792 36556 ft 459 kts 354°
2026-05-06 12:01 58.47603 11.28907 36316 ft 459 kts 354°
2026-05-06 12:01 58.50798 11.29026 36068 ft 461 kts 354°
2026-05-06 12:02 58.54006 11.29149 35813 ft 463 kts 354°
2026-05-06 12:02 58.57235 11.29268 35540 ft 463 kts 353°
2026-05-06 12:02 58.60443 11.29389 35006 ft 461 kts 353°
2026-05-06 12:02 58.63646 11.29507 34438 ft 460 kts 353°
2026-05-06 12:03 58.66843 11.29622 33870 ft 458 kts 352°
2026-05-06 12:03 58.68990 11.29696 33500 ft 457 kts 352°
2026-05-06 12:03 58.72157 11.29803 32948 ft 455 kts 352°
2026-05-06 12:03 58.75319 11.29916 32397 ft 454 kts 352°
2026-05-06 12:04 58.78470 11.30036 31852 ft 452 kts 352°
2026-05-06 12:04 58.81609 11.30158 31307 ft 450 kts 352°
2026-05-06 12:04 58.84735 11.30281 30770 ft 448 kts 352°
2026-05-06 12:04 58.87846 11.30400 30244 ft 446 kts 352°
2026-05-06 12:05 58.90936 11.30513 29733 ft 443 kts 351°
2026-05-06 12:05 58.94006 11.30627 29239 ft 440 kts 352°
2026-05-06 12:05 58.97051 11.30747 28744 ft 436 kts 352°
2026-05-06 12:05 59.00074 11.30864 28267 ft 433 kts 352°
2026-05-06 12:06 59.03074 11.30975 27790 ft 428 kts 352°
2026-05-06 12:06 59.06038 11.31087 27304 ft 425 kts 352°
2026-05-06 12:06 59.08985 11.31199 26824 ft 421 kts 352°
2026-05-06 12:06 59.11899 11.31475 26474 ft 421 kts
2026-05-06 12:07 59.14736 11.32829 26378 ft 415 kts
2026-05-06 12:07 59.17471 11.34355 26284 ft 402 kts
2026-05-06 12:07 59.20112 11.35835 26197 ft 389 kts
2026-05-06 12:07 59.22681 11.37276 26104 ft 379 kts
2026-05-06 12:08 59.25219 11.38688 26022 ft 381 kts
2026-05-06 12:08 59.27774 11.40103 25937 ft 381 kts
2026-05-06 12:08 59.30321 11.41520 25853 ft 381 kts
2026-05-06 12:08 59.32868 11.42940 25769 ft 381 kts
2026-05-06 12:09 59.35408 11.44369 25686 ft 380 kts
2026-05-06 12:09 59.37943 11.45808 25601 ft 379 kts
2026-05-06 12:09 59.40475 11.47251 25517 ft 378 kts
2026-05-06 12:09 59.42996 11.48689 25436 ft 377 kts
2026-05-06 12:10 59.45513 11.50119 25347 ft 376 kts
2026-05-06 12:10 59.48028 11.51549 25265 ft 376 kts
2026-05-06 12:10 59.50536 11.52980 25184 ft 375 kts
2026-05-06 12:10 59.53041 11.54417 25101 ft 375 kts
2026-05-06 12:11 59.55542 11.55856 25018 ft 375 kts
2026-05-06 12:11 59.58040 11.57292 24935 ft 373 kts
2026-05-06 12:11 59.60530 11.58724 24847 ft 373 kts
2026-05-06 12:11 59.63019 11.60150 24770 ft 372 kts
2026-05-06 12:12 59.65506 11.61572 24687 ft 371 kts
2026-05-06 12:12 59.67984 11.62992 24485 ft 372 kts
2026-05-06 12:12 59.70518 11.64432 23646 ft 384 kts
2026-05-06 12:12 59.73087 11.65894 23140 ft 384 kts
2026-05-06 12:13 59.75646 11.67376 22746 ft 381 kts
2026-05-06 12:13 59.78181 11.68858 22374 ft 378 kts
2026-05-06 12:13 59.80699 11.70335 21903 ft 378 kts
2026-05-06 12:13 59.83218 11.71813 21499 ft 376 kts
2026-05-06 12:14 59.85711 11.73279 21142 ft 372 kts
2026-05-06 12:14 59.88185 11.74736 20675 ft 371 kts
2026-05-06 12:14 59.90714 11.76198 19698 ft 386 kts
2026-05-06 12:14 59.93343 11.77710 18649 ft 400 kts
2026-05-06 12:15 59.96062 11.79284 17516 ft 413 kts
2026-05-06 12:15 59.98829 11.80903 16956 ft 406 kts 10°
2026-05-06 12:15 60.01434 11.82479 16817 ft 377 kts 10°
2026-05-06 12:15 60.03851 11.83957 16691 ft 350 kts
2026-05-06 12:16 60.06123 11.85330 16508 ft 336 kts
2026-05-06 12:16 60.08346 11.86646 16282 ft 331 kts
2026-05-06 12:16 60.10536 11.87928 15843 ft 326 kts
2026-05-06 12:16 60.12702 11.89199 15231 ft 323 kts
2026-05-06 12:17 60.14845 11.90454 14644 ft 320 kts 10°
2026-05-06 12:17 60.16968 11.91705 14050 ft 316 kts 11°
2026-05-06 12:17 60.19064 11.92944 13478 ft 313 kts 11°
2026-05-06 12:17 60.21146 11.94179 12885 ft 310 kts 12°
2026-05-06 12:18 60.23199 11.95398 12312 ft 306 kts 13°
2026-05-06 12:18 60.25232 11.96610 11721 ft 303 kts 13°
2026-05-06 12:18 60.27244 11.97812 11144 ft 300 kts 14°
2026-05-06 12:18 60.29239 11.99007 10517 ft 298 kts 14°
2026-05-06 12:19 60.31219 12.00197 9922 ft 295 kts 14°
2026-05-06 12:19 60.33118 12.01343 9778 ft 275 kts 15°
2026-05-06 12:19 60.34918 12.02370 9362 ft 267 kts
2026-05-06 12:19 60.36724 12.02281 9051 ft 256 kts 343°
2026-05-06 12:20 60.38313 12.00852 8693 ft 248 kts 320°
2026-05-06 12:20 60.39462 11.98334 8297 ft 242 kts 297°
2026-05-06 12:20 60.40032 11.95198 7921 ft 237 kts 275°
2026-05-06 12:20 60.40172 11.91893 7584 ft 235 kts 272°
2026-05-06 12:21 60.40300 11.88605 7241 ft 234 kts 272°
2026-05-06 12:21 60.40429 11.85320 6890 ft 233 kts 272°
2026-05-06 12:21 60.40558 11.82072 6760 ft 233 kts 272°
2026-05-06 12:21 60.40688 11.78798 6634 ft 234 kts 272°
2026-05-06 12:22 60.40818 11.75525 6511 ft 233 kts 272°
2026-05-06 12:22 60.40947 11.72213 6390 ft 233 kts 272°
2026-05-06 12:22 60.41070 11.68995 6263 ft 232 kts 272°
2026-05-06 12:22 60.41194 11.65700 6141 ft 232 kts 272°
2026-05-06 12:23 60.41315 11.62456 6009 ft 231 kts 272°
2026-05-06 12:23 60.41436 11.59215 5885 ft 231 kts 272°
2026-05-06 12:23 60.41557 11.55981 5759 ft 230 kts 272°
2026-05-06 12:23 60.41676 11.52750 5639 ft 230 kts 272°
2026-05-06 12:24 60.41796 11.49535 5512 ft 226 kts 272°
2026-05-06 12:24 60.41916 11.46475 5391 ft 218 kts 272°
2026-05-06 12:24 60.42038 11.43423 5257 ft 211 kts 272°
2026-05-06 12:24 60.42155 11.40498 5096 ft 207 kts 272°
2026-05-06 12:25 60.42265 11.37601 4859 ft 207 kts 272°
2026-05-06 12:25 60.42370 11.34736 4711 ft 201 kts 272°
2026-05-06 12:25 60.42472 11.31991 4612 ft 189 kts 272°
2026-05-06 12:25 60.42570 11.29375 4408 ft 184 kts 272°
2026-05-06 12:26 60.42363 11.26887 4135 ft 180 kts 239°
2026-05-06 12:26 60.41590 11.24911 4001 ft 180 kts 227°
2026-05-06 12:26 60.40719 11.23086 4005 ft 181 kts 225°
2026-05-06 12:26 60.39834 11.21275 4009 ft 181 kts 225°
2026-05-06 12:27 60.38917 11.19527 4001 ft 182 kts 215°
2026-05-06 12:27 60.37756 11.18530 3892 ft 183 kts 198°
2026-05-06 12:27 60.36532 11.17827 3687 ft 183 kts 197°
2026-05-06 12:27 60.35314 11.17123 3453 ft 182 kts 197°
2026-05-06 12:28 60.34097 11.16415 3214 ft 182 kts 197°
2026-05-06 12:28 60.32885 11.15710 2976 ft 181 kts 197°
2026-05-06 12:28 60.31677 11.15009 2743 ft 181 kts 198°
2026-05-06 12:28 60.30468 11.14308 2504 ft 181 kts 197°
2026-05-06 12:29 60.29274 11.13620 2269 ft 173 kts 196°
2026-05-06 12:29 60.28149 11.12964 2030 ft 164 kts 198°
2026-05-06 12:29 60.27101 11.12354 1829 ft 150 kts 198°
2026-05-06 12:29 60.26128 11.11788 1632 ft 143 kts 198°
2026-05-06 12:30 60.25176 11.11236 1442 ft 143 kts 198°
2026-05-06 12:30 60.24219 11.10677 1261 ft 144 kts 197°
2026-05-06 12:30 60.23253 11.10118 1074 ft 145 kts 197°
2026-05-06 12:30 60.22286 11.09559 874 ft 144 kts 197°
2026-05-06 12:31 60.21332 11.09012 692 ft 141 kts 197°
2026-05-06 12:31 60.20495 11.08515 678 ft 92 kts 197°
2026-05-06 12:31 60.20081 11.08297 676 ft 48 kts 187°
2026-05-06 12:31 60.19921 11.08357 675 ft 11 kts 142°
2026-05-06 12:32 60.19896 11.08430 675 ft 1 kts 111°
2026-05-06 12:32 60.19895 11.08431 673 ft 0 kts 111°
2026-05-06 12:32 60.19893 11.08448 675 ft 5 kts 109°
2026-05-06 12:33 60.19875 11.08555 678 ft 10 kts 107°
2026-05-06 12:33 60.19864 11.08682 679 ft 8 kts 79°
2026-05-06 12:33 60.19911 11.08751 680 ft 13 kts 16°
2026-05-06 12:33 60.20027 11.08818 680 ft 22 kts 16°
2026-05-06 12:34 60.20167 11.08898 681 ft 12 kts 16°
2026-05-06 12:34 60.20191 11.08999 680 ft 10 kts 103°
2026-05-06 12:34 60.20164 11.09186 680 ft 16 kts 106°